Starlink 4467

operational
NORAD ID: 53686 Int'l Des: 2022-105 Owner: SPXS Country: US Constellation: starlink
LEOCIRCULARRETROGRADESSO

About Starlink 4467

Description loading...

Live Position

Loading 3D Globe...

Upcoming Passes

Altitude History

Altitude vs Time

uPlot chart will show altitude changes over time

Two-Line Element Set

1 53686U 22105AQ 26094.89119443 .00004868 00000-0 38321-3 0 9994
2 53686 97.6041 335.9113 0002331 95.7242 264.4248 15.01267321197173
Epoch: Apr 4, 2026 • Age: 7 hours

Current Status

Altitude 565.8 km
Velocity 7.58 km/s
Sub-Earth Point 29.30°N, 99.85°W
Launch Date Aug 31, 2022
Age 3.5 years
Type internet

Technical Details

Classification Payload
Mass 300.00 kg
Dry Mass 290.00 kg
Total Mass 300.00 kg
Length 0.20 m
Diameter 2.80 m
Span 9.00 m
Shape Box + pan
Manufacturer SPXS
Bus Type Starlink
Phase Status In Orbit
Owner/State SPXS/US

Large Constellations

Loading constellations...